Location: Gleizolles
(44.4833°N, 6.7667°E)
Time: 21:52:57
(UTC+00:00)

Tiros 1 despin weight - Pass Details

Date: 04 July 2024
Orbit: 576 x 620 km, 48.2° (Epoch: 19 July)

Event Time Altitude Azimuth Distance (km) Brightness Sun altitude
Rises 08:14:52 0° 253° (WSW) 2,852 ? 43.5°
Reaches altitude 10° 08:17:09 10° 255° (WSW) 1,957 ? 43.9°
Maximum altitude 08:21:39 77° 341° (NNW) 633 ? 44.7°
Drops below altitude 10° 08:26:14 10° 68° (ENE) 1,983 ? 45.5°
Sets 08:28:33 0° 70° (ENE) 2,893 ? 45.9°
